CW5404 Weather Reports


time (UTC)temp
F
wind
direction
speed
knots
gust
knots
rain 1hr
in
rain 24hr
in
rain mn
in
humidity
%
barometer
mb
20260905174936 59 360 0.9 3.5 0.01 0.20 0.01 99 1016.6
20260905174505 59 360 0.9 3.5 0.01 0.20 0.01 100 1016.6
20260905174006 59 360 1.7 3.5 0.01 0.20 0.01 100 1016.6
20260905173005 58 108 2.6 2.6 0.01 0.20 0.01 100 1016.5
20260905172505 58 360 0.9 2.6 0.01 0.20 0.01 100 1016.4
20260905172005 58 360 1.7 2.6 0.01 0.20 0.01 100 1016.4
20260905171505 58 128 1.7 2.6 0.01 0.20 0.01 100 1016.4
20260905170006 57 146 0.0 2.6 0.01 0.20 0.01 100 1016.4
20260905165505 57 124 1.7 2.6 0.01 0.20 0.01 100 1016.5
20260905164005 57 157 0.9 2.6 0.00 0.19 0.00 100 1016.4
20260905163505 57 133 0.9 2.6 0.00 0.19 0.00 100 1016.4
20260905163005 57 176 0.0 2.6 0.00 0.19 0.00 100 1016.4
20260905162005 57 105 1.7 3.5 0.00 0.19 0.00 100 1016.4
20260905161505 57 88 0.0 3.5 0.00 0.19 0.00 100 1016.4
20260905161004 56 63 1.7 2.6 0.00 0.19 0.00 100 1016.5
20260905160505 57 53 0.9 2.6 0.00 0.19 0.00 100 1016.5
20260905160004 56 133 0.9 2.6 0.00 0.19 0.00 100 1016.5
20260905154505 56 138 0.9 1.7 0.00 0.19 0.00 98 1016.5
20260905154005 56 148 0.0 1.7 0.00 0.19 0.00 98 1016.4
20260905153504 56 142 0.9 1.7 0.00 0.19 0.00 97 1016.4
20260905153004 56 160 1.7 1.7 0.00 0.19 0.00 98 1016.4
20260905152504 56 155 0.0 2.6 0.00 0.19 0.00 97 1016.3
20260905151005 56 160 0.9 2.6 0.00 0.19 0.00 100 1016.3
20260905150505 56 162 0.0 1.7 0.00 0.19 0.00 100 1016.3
20260905150005 56 171 0.9 1.7 0.00 0.19 0.00 100 1016.3
20260905145504 56 169 0.0 0.0 0.00 0.19 0.00 100 1016.4
20260905145005 56 169 0.0 0.0 0.00 0.19 0.00 100 1016.4
20260905144505 56 124 0.0 0.0 0.00 0.19 0.00 100 1016.4
20260905144005 56 123 0.0 1.7 0.00 0.19 0.00 100 1016.3
20260905143504 56 117 0.0 1.7 0.00 0.19 0.00 100 1016.3
20260905143004 56 115 0.0 0.0 0.00 0.19 0.00 100 1016.3
20260905141504 56 115 0.0 1.7 0.00 0.19 0.00 100 1016.2
20260905141004 56 115 0.0 1.7 0.00 0.19 0.00 100 1016.2
20260905140504 56 116 0.9 1.7 0.00 0.19 0.00 100 1016.2
20260905140005 56 116 0.0 0.0 0.00 0.19 0.00 100 1016.2
20260905135004 56 115 0.0 0.0 0.00 0.19 0.00 100 1016.3
20260905134504 56 126 0.0 0.0 0.00 0.19 0.00 100 1016.3
20260905134005 56 126 0.0 0.0 0.00 0.19 0.00 100 1016.2
20260905133504 56 126 0.0 0.9 0.00 0.19 0.00 100 1016.2
20260905133004 56 126 0.0 1.7 0.00 0.19 0.00 100 1016.2
20260905132504 56 126 0.0 2.6 0.00 0.19 0.00 100 1016.2
20260905132004 56 134 0.0 2.6 0.00 0.19 0.00 100 1016.2
20260905131504 56 156 0.0 1.7 0.00 0.19 0.00 100 1016.2
20260905131005 56 156 0.0 1.7 0.00 0.19 0.00 100 1016.1
20260905130504 56 156 0.0 0.9 0.00 0.19 0.00 100 1016.1
20260905130004 56 156 0.0 0.0 0.00 0.19 0.00 100 1016.1
20260905125004 56 156 0.0 0.0 0.00 0.19 0.00 100 1016.0
20260905124504 56 156 0.0 0.0 0.00 0.19 0.00 100 1016.0
20260905124004 56 156 0.0 0.0 0.00 0.19 0.00 100 1015.9
20260905123504 56 156 0.0 0.0 0.00 0.19 0.00 100 1015.9
20260905123004 56 156 0.0 0.0 0.00 0.19 0.00 99 1015.9
20260905121004 56 156 0.0 0.0 0.00 0.22 0.00 99 1015.7
20260905120505 56 156 0.0 0.0 0.00 0.22 0.00 98 1015.7
20260905120004 56 156 0.0 0.0 0.00 0.22 0.00 98 1015.7
20260905115504 56 156 0.0 0.0 0.00 0.22 0.00 98 1015.8
20260905115004 56 156 0.0 0.0 0.00 0.22 0.00 97 1015.8
20260905114504 56 156 0.0 0.0 0.00 0.22 0.00 97 1015.8
20260905114004 56 156 0.0 0.0 0.00 0.22 0.00 97 1015.8
20260905113504 56 156 0.0 1.7 0.00 0.22 0.00 97 1015.8
20260905113004 56 156 0.0 2.6 0.00 0.22 0.00 96 1015.8
20260905112504 56 156 0.0 2.6 0.00 0.22 0.00 96 1015.7
20260905112004 57 150 2.6 2.6 0.00 0.22 0.00 96 1015.7
20260905111504 57 127 0.0 1.7 0.00 0.22 0.00 97 1015.7
20260905111004 57 155 0.9 1.7 0.00 0.22 0.00 97 1015.7
20260905110504 57 166 1.7 1.7 0.00 0.22 0.00 97 1015.7
20260905110004 56 209 0.0 0.0 0.00 0.22 0.00 97 1015.7
20260905105504 56 209 0.0 0.0 0.00 0.22 0.00 97 1015.7
20260905105004 56 209 0.0 0.0 0.00 0.22 0.00 97 1015.7
20260905104504 56 209 0.0 0.0 0.00 0.22 0.00 96 1015.7
20260905104004 56 209 0.0 0.0 0.00 0.22 0.00 96 1015.7
20260905103504 56 209 0.0 0.0 0.00 0.22 0.00 96 1015.7
20260905103004 56 209 0.0 0.0 0.00 0.23 0.00 96 1015.7
20260905102504 57 209 0.0 0.0 0.00 0.23 0.00 96 1015.7
20260905102004 57 209 0.0 0.0 0.00 0.23 0.00 96 1015.7
20260905101004 56 209 0.0 1.7 0.00 0.23 0.00 96 1015.7
20260905100504 56 209 1.7 1.7 0.00 0.23 0.00 96 1015.7
20260905100004 56 209 0.0 2.6 0.00 0.23 0.00 96 1015.7
20260905095504 56 134 0.0 2.6 0.00 0.23 0.00 96 1015.6
20260905095006 56 139 2.6 2.6 0.00 0.23 0.00 96 1015.6
20260905094504 57 159 0.0 1.7 0.00 0.23 0.00 96 1015.6
20260905094003 57 156 0.9 2.6 0.00 0.23 0.00 96 1015.6
20260905093503 57 156 0.9 2.6 0.00 0.23 0.00 96 1015.6
20260905092503 57 175 0.0 0.9 0.00 0.23 0.00 96 1015.6
20260905092004 57 175 0.9 1.7 0.00 0.23 0.00 96 1015.6
20260905091503 57 175 0.0 1.7 0.00 0.23 0.00 96 1015.6
20260905091004 57 186 0.0 0.9 0.00 0.23 0.00 96 1015.6
20260905090004 57 187 0.0 0.9 0.00 0.24 0.00 96 1015.6
20260905085503 57 186 0.0 0.9 0.00 0.24 0.00 96 1015.6
20260905085003 57 186 0.0 1.7 0.00 0.24 0.00 96 1015.6
20260905084503 57 187 0.0 1.7 0.00 0.24 0.00 96 1015.6
20260905084003 57 198 1.7 1.7 0.00 0.25 0.00 96 1015.5
20260905083503 57 161 0.0 0.0 0.00 0.26 0.00 96 1015.5
20260905082503 57 161 0.0 3.5 0.00 0.27 0.00 96 1015.3
20260905082003 57 158 0.9 3.5 0.00 0.28 0.00 96 1015.3
20260905081503 57 168 0.9 1.7 0.00 0.29 0.00 96 1015.3
20260905081003 57 184 0.0 0.9 0.00 0.30 0.00 96 1015.2
20260905075503 57 184 0.0 0.9 0.00 0.33 0.00 96 1015.0
20260905075003 57 184 0.0 0.9 0.00 0.34 0.00 96 1015.0
20260905074503 57 184 0.9 0.9 0.00 0.34 0.00 96 1015.0
20260905074003 57 185 0.0 1.7 0.00 0.34 0.00 96 1015.0
20260905073503 57 185 0.0 2.6 0.00 0.35 0.00 96 1015.0
20260905073003 57 185 1.7 2.6 0.00 0.35 0.00 95 1015.0
20260905072003 57 144 0.0 2.6 0.00 0.35 0.00 95 1014.9
20260905071503 57 144 0.0 2.6 0.00 0.35 0.00 95 1014.9
20260905071003 57 140 0.9 2.6 0.00 0.35 0.00 95 1015.0
20260905070503 57 120 0.0 0.0 0.00 0.35 0.00 95 1015.0
20260905070003 57 114 0.0 0.0 0.00 0.35 0.00 94 1015.0
20260905065003 57 112 0.0 0.0 0.00 0.35 0.35 94 1015.1
20260905064502 57 110 0.0 0.0 0.00 0.35 0.35 94 1015.1
20260905064003 57 102 0.0 0.0 0.00 0.35 0.35 94 1014.9
20260905063002 57 100 0.0 1.7 0.00 0.36 0.35 93 1014.9
20260905062003 57 99 0.0 0.0 0.00 0.36 0.35 93 1014.7
20260905060502 57 98 0.0 0.0 0.00 0.36 0.35 93 1014.8
20260905060003 57 96 0.0 0.0 0.00 0.36 0.35 93 1014.8
20260905055502 57 117 0.0 0.0 0.00 0.36 0.35 92 1014.7
20260905055002 57 117 0.0 0.0 0.00 0.36 0.35 92 1014.7
20260905054002 57 117 0.0 0.0 0.00 0.36 0.35 92 1014.6
20260905053503 57 117 0.0 0.0 0.00 0.36 0.35 92 1014.6
20260905053003 57 117 0.0 0.0 0.00 0.36 0.35 92 1014.6
20260905052503 57 117 0.0 0.0 0.00 0.36 0.35 92 1014.5
20260905052003 57 117 0.0 0.0 0.00 0.36 0.35 92 1014.5
20260905051003 57 121 0.0 0.0 0.00 0.36 0.35 91 1014.6
20260905050502 57 121 0.0 0.0 0.00 0.36 0.35 91 1014.6
20260905050003 57 121 0.0 0.0 0.00 0.36 0.35 90 1014.6
20260905045502 57 121 0.0 0.0 0.00 0.36 0.35 90 1014.5
20260905044503 57 121 0.0 0.0 0.00 0.36 0.35 89 1014.5
20260905043502 57 121 0.0 0.0 0.00 0.36 0.35 88 1014.4
20260905043002 57 121 0.0 0.0 0.00 0.36 0.35 88 1014.4
20260905042502 57 121 0.0 1.7 0.00 0.36 0.35 88 1014.3
20260905042002 58 121 0.0 2.6 0.00 0.36 0.35 88 1014.3
20260905041502 58 138 0.9 2.6 0.00 0.36 0.35 87 1014.3
20260905041002 58 170 0.0 1.7 0.00 0.36 0.35 87 1014.2
20260905040502 58 185 0.0 3.5 0.00 0.36 0.35 87 1014.2
20260905040002 58 201 0.9 3.5 0.00 0.36 0.35 87 1014.2
20260905035502 58 190 0.0 4.3 0.00 0.36 0.35 87 1014.1
20260905035002 58 155 0.0 4.3 0.00 0.36 0.35 87 1014.1
20260905034501 58 169 0.0 0.9 0.00 0.36 0.35 87 1014.1
20260905033502 58 190 0.0 2.6 0.00 0.36 0.35 86 1014.0
20260905033001 58 140 0.0 1.7 0.00 0.36 0.35 86 1014.0
20260905032502 58 151 0.0 1.7 0.00 0.36 0.35 86 1013.8
20260905032002 58 159 0.0 1.7 0.00 0.36 0.35 85 1013.8
20260905031502 59 155 0.0 1.7 0.00 0.36 0.35 85 1013.8
20260905030001 59 196 0.0 3.5 0.00 0.37 0.35 84 1013.6
20260905025501 59 189 1.7 3.5 0.00 0.37 0.35 83 1013.5
20260905025001 59 180 0.9 3.5 0.00 0.37 0.35 82 1013.5
20260905024502 59 161 0.0 5.2 0.00 0.37 0.35 82 1013.5
20260905024002 60 179 0.9 5.2 0.00 0.37 0.35 82 1013.5
20260905023501 60 163 0.9 4.3 0.00 0.37 0.35 82 1013.5
20260905022502 60 172 0.9 3.5 0.00 0.38 0.35 81 1013.5
20260905022001 60 182 0.0 3.5 0.00 0.38 0.35 80 1013.5
20260905021502 60 161 0.0 3.5 0.00 0.38 0.35 80 1013.5
20260905020502 61 194 3.5 5.2 0.00 0.38 0.35 79 1013.5
20260905020001 61 167 0.0 1.7 0.00 0.38 0.35 79 1013.5
20260905015002 61 170 0.0 3.5 0.00 0.38 0.35 79 1013.5
20260905014502 61 173 0.0 3.5 0.00 0.38 0.35 78 1013.5
20260905013502 61 163 1.7 3.5 0.00 0.38 0.35 76 1013.4
20260905013001 61 187 0.0 3.5 0.00 0.38 0.35 76 1013.4
20260905012501 61 173 0.0 3.5 0.00 0.38 0.35 76 1013.1
20260905011502 62 182 2.6 5.2 0.00 0.38 0.35 75 1013.2
20260905011001 62 165 3.5 4.3 0.00 0.38 0.35 74 1013.1
20260905010502 62 132 1.7 4.3 0.00 0.38 0.35 73 1013.1
20260905010001 62 174 0.9 3.5 0.00 0.38 0.35 73 1013.1
20260905005501 62 136 0.0 5.2 0.00 0.38 0.35 73 1013.0
20260905005002 62 113 1.7 5.2 0.00 0.38 0.35 72 1013.0
20260905004501 63 158 0.9 6.1 0.00 0.38 0.35 72 1013.0
20260905003502 63 173 1.7 4.3 0.00 0.38 0.35 72 1012.8
20260905002001 63 176 1.7 6.1 0.00 0.38 0.35 72 1012.7
20260905001502 63 132 4.3 6.1 0.00 0.38 0.35 70 1012.7
20260905001001 64 212 2.6 6.1 0.00 0.38 0.35 69 1012.6
20260905000002 64 190 0.9 7.0 0.00 0.38 0.35 68 1012.6
20260904235502 64 200 1.7 9.6 0.00 0.38 0.35 69 1012.5
20260904235001 64 181 7.0 9.6 0.00 0.38 0.35 66 1012.5
20260904234501 65 192 4.3 7.8 0.00 0.38 0.35 66 1012.5
20260904233501 65 192 3.5 7.8 0.00 0.38 0.35 68 1012.3
20260904233001 65 155 1.7 7.0 0.00 0.38 0.35 69 1012.3
20260904232501 65 156 2.6 7.0 0.00 0.38 0.35 71 1012.4
20260904232001 64 151 1.7 4.3 0.00 0.38 0.35 75 1012.4
20260904231001 64 158 2.6 6.1 0.00 0.38 0.35 74 1012.4
20260904230001 65 126 3.5 7.0 0.00 0.38 0.35 72 1012.4
20260904225501 66 130 2.6 7.0 0.00 0.38 0.35 72 1012.3
20260904225001 66 195 4.3 6.1 0.00 0.38 0.35 70 1012.3
20260904224501 65 123 2.6 8.7 0.00 0.38 0.35 69 1012.3
20260904224001 65 240 5.2 8.7 0.00 0.38 0.35 72 1012.2
20260904223501 65 215 4.3 7.0 0.00 0.38 0.35 71 1012.2
20260904223001 65 188 5.2 7.0 0.00 0.38 0.35 72 1012.2
20260904222502 65 201 5.2 7.8 0.00 0.38 0.35 72 1012.2
20260904222001 65 175 3.5 7.8 0.00 0.38 0.35 74 1012.2
20260904221001 64 168 3.5 5.2 0.00 0.39 0.35 82 1012.2
20260904220501 64 165 2.6 6.1 0.00 0.39 0.35 83 1012.2
20260904220001 63 360 4.3 6.1 0.00 0.39 0.35 83 1012.2
20260904215001 62 360 0.0 6.1 0.00 0.39 0.35 84 1012.4
20260904214501 61 360 2.6 6.1 0.00 0.39 0.35 84 1012.3
20260904213501 61 360 0.0 6.1 0.00 0.39 0.35 87 1012.2
20260904213001 61 360 1.7 5.2 0.00 0.39 0.35 88 1012.2
20260904212001 60 360 0.9 4.3 0.00 0.39 0.35 89 1012.3
20260904211501 60 360 0.9 7.0 0.00 0.39 0.35 89 1012.3
20260904211001 60 360 2.6 7.0 0.01 0.39 0.35 89 1012.1
20260904210501 60 360 4.3 7.0 0.01 0.39 0.35 90 1012.1
20260904210001 60 360 2.6 5.2 0.02 0.39 0.35 92 1012.1
20260904205501 60 360 2.6 7.8 0.02 0.40 0.35 92 1012.1
20260904205001 60 360 3.5 7.8 0.02 0.40 0.35 93 1012.2
20260904204500 60 360 0.9 1.7 0.03 0.40 0.35 96 1012.2
20260904203501 59 360 0.9 2.6 0.08 0.40 0.35 95 1012.1
20260904202500 59 360 1.7 5.2 0.11 0.40 0.35 95 1012.2
20260904202001 59 360 0.0 2.6 0.12 0.41 0.35 95 1012.2
20260904201001 58 98 2.6 3.5 0.12 0.40 0.34 94 1012.2
20260904200501 58 157 2.6 3.5 0.14 0.41 0.34 94 1012.2
20260904200000 58 210 0.9 2.6 0.16 0.41 0.33 94 1012.2
20260904195500 58 167 1.7 1.7 0.17 0.43 0.33 95 1012.1
20260904195001 58 165 0.0 1.7 0.17 0.43 0.33 94 1012.1
20260904194501 58 165 0.9 1.7 0.16 0.43 0.32 94 1012.1
20260904194001 58 165 0.0 0.0 0.14 0.42 0.30 93 1012.1
20260904193500 58 165 0.0 0.0 0.11 0.39 0.27 93 1012.1
20260904192501 58 165 0.0 0.9 0.08 0.37 0.24 92 1012.3
20260904192001 58 165 0.0 0.9 0.07 0.36 0.23 92 1012.3
20260904191501 58 187 0.0 2.6 0.07 0.37 0.23 91 1012.3
20260904191001 58 207 0.0 5.2 0.06 0.36 0.22 90 1012.4
20260904190000 60 209 2.6 4.3 0.01 0.32 0.17 86 1012.4
20260904185500 60 360 2.6 4.3 0.00 0.31 0.16 86 1012.0
20260904185000 60 360 0.0 2.6 0.00 0.31 0.16 87 1012.0
20260904184500 60 360 0.0 1.7 0.00 0.31 0.16 89 1012.0
20260904183500 59 360 0.0 0.9 0.00 0.31 0.16 89 1011.9
20260904183000 59 360 0.0 2.6 0.00 0.31 0.16 91 1011.9
20260904182000 59 360 0.9 1.7 0.00 0.31 0.16 92 1011.9
20260904181500 59 360 0.9 2.6 0.00 0.31 0.16 94 1011.9
20260904181000 59 360 0.0 3.5 0.00 0.31 0.16 94 1011.9
20260904180500 59 360 1.7 3.5 0.00 0.31 0.16 95 1011.9